Torna al catalogo

OPS 7869

DMSP 4B F1

AttivoMeteoSSO
NORAD 3266·PAYLOAD·🇺🇸 United States

Lanciato May 23, 1968 da Vandenberg Space Force Base

Loading…

Prossimi Passaggi (prossime 24 ore)

TLE

AggiornatoSource: Space-Track

Epoca: Sep 14, 2026, 00:15 UTC

1 03266U 68042A   26257.01051326  .00000022  00000-0  31681-4 0  9994
2 03266  98.5576  84.3606 0053356  48.0682 312.5023 14.15910476925703

Traccia OPS 7869 in tempo reale con AllMySat

Download on the App Store